User: anonymous   Login
Location: Unspecified
(0.0000°N, 0.0000°E)
Time: 02:35:18
(UTC+00:00)
Language:

GALILEO 9 (205) - Orbit

View from above orbital plane
View from above orbital plane
View from above satellite
View from above satellite

Ground track
Ground track

The orbit data is extracted from the following two-line orbital elements,

1 40889U 15045A   18321.55859543 -.00000021 +00000-0 +00000-0 0  9997
2 40889 056.6188 297.9718 0003141 332.0817 027.8950 01.70474692019811
Epoch (UTC): 17 November 2018 13:24:22
Eccentricity: 0.0003141
inclination: 56.6188°
perigee height: 23212 km
apogee height: 23231 km
right ascension of ascending node: 297.9718°
argument of perigee: 332.0817°
revolutions per day: 1.70474692
mean anomaly at epoch: 27.8950°
orbit number at epoch: 1981

The dashed part of the orbit path shows where the satellite is in the earth's shadow,  

DLR